• In Czech Republic
  • List of Countries
  • For 7 days
  • Water Temperature
  • Satellite Maps
  • Weather Map
  • Weather Widgets
  • user-avatar
    Login

    Hourly Weather Kamloops

    Today, 25 February, Sunday

    Time Temperature Precipitation Wind Pressure Humidity
    00:00 -6°C° 0 mm 2 mps 697 mmHg 95%
    01:00 -6°C° 0 mm 2 mps 696 mmHg 95%
    02:00 -6°C° 0.1 mm 2 mps 695 mmHg 95%
    03:00 -6°C° 0.1 mm 2 mps 694 mmHg 95%
    04:00 -5°C° 0.1 mm 2 mps 693 mmHg 95%
    05:00 -6°C° 0.7 mm 3 mps 693 mmHg 94%
    06:00 -5°C° 0.7 mm 3 mps 693 mmHg 94%
    07:00 -4°C° 0.7 mm 4 mps 693 mmHg 94%
    08:00 -4°C° 0.6 mm 3 mps 693 mmHg 91%
    09:00 -3°C° 0.6 mm 2 mps 693 mmHg 88%
    10:00 0°C° 0.6 mm 1 mps 693 mmHg 86%
    11:00 -2°C° 0.3 mm 2 mps 693 mmHg 81%
    12:00 -2°C° 0.3 mm 2 mps 694 mmHg 77%
    13:00 -1°C° 0.3 mm 2 mps 694 mmHg 72%
    14:00 -1°C° 0.2 mm 2 mps 694 mmHg 74%
    15:00 -2°C° 0.2 mm 2 mps 694 mmHg 76%
    16:00 -2°C° 0.2 mm 2 mps 694 mmHg 78%
    17:00 -2°C° 0.1 mm 1 mps 695 mmHg 82%
    18:00 -3°C° 0.1 mm 1 mps 695 mmHg 87%
    19:00 -6°C° 0.1 mm 1 mps 696 mmHg 91%
    20:00 -7°C° 0.1 mm 1 mps 697 mmHg 92%
    21:00 -7°C° 0.1 mm 1 mps 697 mmHg 94%
    22:00 -8°C° 0.1 mm 1 mps 698 mmHg 95%
    23:00 -8°C° 0 mm 1 mps 699 mmHg 96%

    Tomorrow, 26 February, Monday

    Time Temperature Precipitation Wind Pressure Humidity
    00:00 -9°C° 0 mm 1 mps 699 mmHg 96%
    01:00 -9°C° 0 mm 1 mps 700 mmHg 96%
    02:00 -9°C° 0.1 mm 1 mps 701 mmHg 96%
    03:00 -9°C° 0.1 mm 1 mps 701 mmHg 96%
    04:00 -10°C° 0.1 mm 1 mps 702 mmHg 96%
    05:00 -10°C° 0 mm 1 mps 703 mmHg 96%
    06:00 -10°C° 0 mm 1 mps 703 mmHg 96%
    07:00 -11°C° 0 mm 1 mps 704 mmHg 96%
    08:00 -8°C° 0 mm 1 mps 704 mmHg 94%
    09:00 -6°C° 0 mm 1 mps 705 mmHg 92%
    10:00 -3°C° 0 mm 1 mps 705 mmHg 90%
    11:00 -1°C° 0 mm 1 mps 705 mmHg 87%
    12:00 -2°C° 0 mm 2 mps 705 mmHg 85%
    13:00 -1°C° 0 mm 2 mps 705 mmHg 83%
    14:00 -1°C° 0 mm 2 mps 705 mmHg 84%
    15:00 -1°C° 0 mm 2 mps 705 mmHg 84%
    16:00 -1°C° 0 mm 3 mps 704 mmHg 85%
    17:00 -2°C° 0 mm 2 mps 704 mmHg 88%
    18:00 -4°C° 0 mm 2 mps 705 mmHg 91%
    19:00 -6°C° 0 mm 2 mps 705 mmHg 94%
    20:00 -6°C° 0 mm 2 mps 705 mmHg 95%
    21:00 -7°C° 0 mm 2 mps 705 mmHg 95%
    22:00 -7°C° 0 mm 2 mps 705 mmHg 95%
    23:00 -7°C° 0.1 mm 2 mps 704 mmHg 95%

    Day after tomorrow, 27 February, Tuesday

    Time Temperature Precipitation Wind Pressure Humidity
    00:00 -7°C° 0.1 mm 2 mps 704 mmHg 95%
    01:00 -7°C° 0.1 mm 2 mps 704 mmHg 95%
    02:00 -8°C° 0 mm 2 mps 704 mmHg 95%
    03:00 -8°C° 0 mm 2 mps 704 mmHg 96%
    04:00 -8°C° 0 mm 1 mps 703 mmHg 96%
    05:00 -8°C° 0 mm 1 mps 703 mmHg 96%
    06:00 -8°C° 0 mm 1 mps 703 mmHg 96%
    07:00 -8°C° 0 mm 1 mps 703 mmHg 96%
    08:00 -7°C° 0 mm 2 mps 703 mmHg 95%
    09:00 -5°C° 0 mm 2 mps 702 mmHg 93%
    10:00 -3°C° 0 mm 2 mps 702 mmHg 91%
    11:00 -2°C° 0.1 mm 2 mps 702 mmHg 90%
    12:00 -1°C° 0.1 mm 2 mps 701 mmHg 89%
    13:00 +2°C° 0.1 mm 2 mps 701 mmHg 87%
    14:00 +2°C° 0.1 mm 2 mps 701 mmHg 87%
    15:00 +2°C° 0.1 mm 2 mps 700 mmHg 87%
    16:00 +2°C° 0.1 mm 2 mps 700 mmHg 87%
    17:00 -1°C° 0.1 mm 2 mps 699 mmHg 90%
    18:00 -3°C° 0.1 mm 2 mps 699 mmHg 93%
    19:00 -2°C° 0.1 mm 1 mps 699 mmHg 95%
    20:00 -3°C° 0.1 mm 1 mps 700 mmHg 96%
    21:00 -4°C° 0.1 mm 1 mps 700 mmHg 96%
    22:00 -4°C° 0.1 mm 1 mps 700 mmHg 97%
    23:00 -4°C° 0 mm 1 mps 700 mmHg 97%

    28 February, Wednesday

    Time Temperature Precipitation Wind Pressure Humidity
    00:00 -4°C° 0 mm 1 mps 700 mmHg 97%
    01:00 -4°C° 0 mm 1 mps 700 mmHg 97%
    02:00 -6°C° 0 mm 1 mps 700 mmHg 97%
    03:00 -6°C° 0 mm 1 mps 700 mmHg 97%
    04:00 -6°C° 0 mm 1 mps 700 mmHg 97%
    05:00 -6°C° 0 mm 1 mps 700 mmHg 97%
    06:00 -6°C° 0 mm 1 mps 700 mmHg 96%
    07:00 -6°C° 0 mm 1 mps 700 mmHg 96%
    08:00 -4°C° 0 mm 1 mps 700 mmHg 95%
    09:00 -2°C° 0 mm 1 mps 700 mmHg 93%
    10:00 0°C° 0 mm 1 mps 699 mmHg 91%
    11:00 -1°C° 0.2 mm 2 mps 699 mmHg 91%
    12:00 +1°C° 0.2 mm 2 mps 698 mmHg 90%
    13:00 +1°C° 0.2 mm 2 mps 698 mmHg 89%
    14:00 +1°C° 0.4 mm 2 mps 697 mmHg 90%
    15:00 0°C° 0.4 mm 3 mps 696 mmHg 91%
    16:00 0°C° 0.4 mm 3 mps 696 mmHg 92%
    17:00 -1°C° 0.3 mm 3 mps 695 mmHg 94%
    18:00 -2°C° 0.3 mm 2 mps 695 mmHg 95%
    19:00 -2°C° 0.3 mm 2 mps 694 mmHg 97%
    20:00 -2°C° 0.4 mm 3 mps 694 mmHg 96%
    21:00 -2°C° 0.4 mm 3 mps 694 mmHg 96%
    22:00 -4°C° 0.4 mm 3 mps 693 mmHg 96%
    23:00 -4°C° 0.5 mm 3 mps 693 mmHg 96%

    1 March, Thursday

    Time Temperature Precipitation Wind Pressure Humidity
    00:00 -4°C° 0.5 mm 3 mps 692 mmHg 96%
    01:00 -4°C° 0.5 mm 3 mps 692 mmHg 96%
    02:00 -4°C° 0.2 mm 3 mps 692 mmHg 96%
    03:00 -3°C° 0.2 mm 2 mps 691 mmHg 96%
    04:00 -4°C° 0.2 mm 2 mps 691 mmHg 97%
    05:00 -4°C° 0.3 mm 2 mps 691 mmHg 97%
    06:00 -4°C° 0.3 mm 2 mps 691 mmHg 97%
    07:00 -4°C° 0.3 mm 2 mps 691 mmHg 97%
    08:00 -3°C° 0.1 mm 2 mps 691 mmHg 96%
    09:00 -2°C° 0.1 mm 3 mps 691 mmHg 94%
    10:00 -1°C° 0.1 mm 3 mps 691 mmHg 93%
    11:00 -1°C° 0.2 mm 4 mps 691 mmHg 92%
    12:00 0°C° 0.2 mm 4 mps 690 mmHg 91%
    13:00 +1°C° 0.2 mm 4 mps 690 mmHg 90%
    14:00 +1°C° 0.3 mm 4 mps 690 mmHg 90%
    15:00 +1°C° 0.3 mm 4 mps 690 mmHg 90%
    16:00 +1°C° 0.3 mm 4 mps 690 mmHg 89%
    17:00 0°C° 0.1 mm 4 mps 690 mmHg 91%
    18:00 0°C° 0.1 mm 3 mps 691 mmHg 93%
    19:00 0°C° 0.1 mm 3 mps 691 mmHg 94%
    20:00 -1°C° 0.1 mm 3 mps 692 mmHg 95%
    21:00 -1°C° 0.1 mm 2 mps 692 mmHg 96%
    22:00 -2°C° 0.1 mm 2 mps 693 mmHg 96%
    23:00 -2°C° 0 mm 2 mps 693 mmHg 97%

    2 March, Friday

    Time Temperature Precipitation Wind Pressure Humidity
    00:00 -2°C° 0 mm 2 mps 694 mmHg 97%
    01:00 -3°C° 0 mm 2 mps 694 mmHg 98%
    02:00 -1°C° 0.1 mm 1 mps 694 mmHg 98%
    03:00 -1°C° 0.1 mm 1 mps 695 mmHg 98%
    04:00 -1°C° 0.1 mm 1 mps 695 mmHg 98%
    05:00 -1°C° 0.2 mm 1 mps 696 mmHg 98%
    06:00 -1°C° 0.2 mm 1 mps 696 mmHg 98%
    07:00 -2°C° 0.2 mm 0 mps 696 mmHg 98%
    08:00 0°C° 0.2 mm 1 mps 696 mmHg 97%
    09:00 +1°C° 0.2 mm 1 mps 696 mmHg 95%
    10:00 +2°C° 0.2 mm 1 mps 695 mmHg 94%
    11:00 +3°C° 0.1 mm 1 mps 695 mmHg 94%
    12:00 +3°C° 0.1 mm 1 mps 695 mmHg 94%
    13:00 +4°C° 0.1 mm 1 mps 695 mmHg 93%
    14:00 +4°C° 0.2 mm 1 mps 695 mmHg 92%
    15:00 +4°C° 0.2 mm 1 mps 695 mmHg 91%
    16:00 +4°C° 0.2 mm 1 mps 695 mmHg 90%
    17:00 +3°C° 0.1 mm 1 mps 696 mmHg 92%
    18:00 +1°C° 0.1 mm 1 mps 697 mmHg 94%
    19:00 0°C° 0.1 mm 1 mps 697 mmHg 95%
    20:00 -1°C° 0.1 mm 1 mps 698 mmHg 96%
    21:00 -1°C° 0.1 mm 1 mps 698 mmHg 96%
    22:00 -2°C° 0.1 mm 1 mps 699 mmHg 97%
    23:00 -2°C° 0 mm 1 mps 699 mmHg 97%
    Show more